Weather History for KBIX - February, 2014

Change the Weather History Date:

Friday, February 28, 2014

  Actual Average Record
Temperature  
Mean Temperature 46 °F -  
Max Temperature 58 °F 65 °F 77 °F (1948)
Min Temperature 34 °F 49 °F 28 °F (2002)
Degree Days  
Heating Degree Days 19    
Moisture  
Dew Point 38 °F    
Average Humidity 66    
Maximum Humidity 87    
Minimum Humidity 35    
Precipitation  
Precipitation 0.00 in - - ()
Sea Level Pressure  
Sea Level Pressure 30.08 in    
Wind  
Wind Speed 8 mph (ESE)    
Max Wind Speed 17 mph    
Max Gust Speed -    
Visibility 10 miles    
Events      
Averages and records for this station are not official NWS values.
T = Trace of Precipitation, MM = Missing Value Source: NWS Daily Summary

Daily Weather History Graph

Daily Weather History Graph

Search for Another Location

Airport or City:

Trip Planner

Search our weather history database for the weather conditions in past years. The results will help you decide how hot, cold, wet, or windy it might be!

Date:

Astronomy

Feb. 28, 2014 Rise Set
Actual Time 6:22 AM CST 5:53 PM CST
Civil Twilight 5:58 AM CST 6:18 PM CST
Nautical Twilight 5:30 AM CST 6:45 PM CST
Astronomical Twilight 5:03 AM CST 7:13 PM CST
Moon 5:36 AM CST (2/28) 5:29 PM CST (2/28)
Length of Visible Light 12h 19m
Length of Day
11h 30m
Waning Crescent, 1% of the Moon is Illuminated
Feb 28
Waning Crescent
Mar 1
New
Mar 8
First Quarter
Mar 16
Full
Mar 23
Last Quarter

Hourly Weather History & Observations

Time (CST) Temp. Windchill Dew Point Humidity Pressure Visibility Wind Dir Wind Speed Gust Speed Precip Events Conditions
12:58 AM 38.7 °F 35.2 °F 34.0 °F 83% 30.05 in 10.0 mi NE 4.6 mph - N/A   Clear
1:58 AM 36.5 °F 32.7 °F 31.1 °F 81% 30.04 in 10.0 mi NE 4.6 mph - N/A   Clear
2:58 AM 36.7 °F - 33.1 °F 87% 30.05 in 10.0 mi Calm Calm - N/A   Clear
3:58 AM 34.7 °F 29.6 °F 30.9 °F 86% 30.04 in 10.0 mi ENE 5.8 mph - N/A   Clear
4:58 AM 35.4 °F 31.5 °F 31.3 °F 85% 30.06 in 10.0 mi ENE 4.6 mph - N/A   Clear
5:58 AM 35.2 °F 29.5 °F 30.6 °F 83% 30.07 in 10.0 mi ENE 6.9 mph - N/A   Clear
6:58 AM 37.6 °F 33.1 °F 31.3 °F 78% 30.10 in 10.0 mi East 5.8 mph - N/A   Partly Cloudy
7:58 AM 45.9 °F 41.2 °F 33.3 °F 61% 30.10 in 10.0 mi East 9.2 mph - N/A   Clear
8:58 AM 51.4 °F - 29.3 °F 43% 30.11 in 10.0 mi ESE 9.2 mph - N/A   Clear
9:58 AM 54.0 °F - 29.8 °F 40% 30.13 in 10.0 mi SSE 8.1 mph - N/A   Clear
10:58 AM 55.6 °F - 28.2 °F 35% 30.11 in 10.0 mi SE 15.0 mph - N/A   Clear
11:58 AM 55.9 °F - 30.4 °F 38% 30.13 in 10.0 mi SE 12.7 mph - N/A   Clear
12:58 PM 56.1 °F - 34.5 °F 44% 30.09 in 10.0 mi ESE 11.5 mph - N/A   Clear
1:58 PM 56.5 °F - 40.3 °F 55% 30.07 in 10.0 mi SE 12.7 mph - N/A   Clear
2:58 PM 57.9 °F - 41.7 °F 55% 30.05 in 10.0 mi SE 9.2 mph - N/A   Clear
3:58 PM 58.5 °F - 42.6 °F 56% 30.07 in 10.0 mi SE 8.1 mph - N/A   Clear
4:58 PM 56.8 °F - 43.2 °F 60% 30.05 in 10.0 mi SE 11.5 mph - N/A   Mostly Cloudy
5:58 PM 56.7 °F - 44.8 °F 64% 30.07 in 10.0 mi ESE 6.9 mph - N/A   Mostly Cloudy
6:58 PM 56.1 °F - 45.9 °F 68% 30.08 in 10.0 mi SE 6.9 mph - N/A   Mostly Cloudy
7:58 PM 56.8 °F - 47.3 °F 70% 30.09 in 10.0 mi SE 15.0 mph - N/A   Overcast
8:58 PM 56.5 °F - 49.1 °F 76% 30.08 in 10.0 mi SSE 17.3 mph - N/A   Clear
9:58 PM 57.0 °F - 49.6 °F 76% 30.08 in 10.0 mi SE 15.0 mph - N/A   Clear
10:58 PM 57.4 °F - 50.5 °F 78% 30.09 in 10.0 mi SE 13.8 mph - N/A   Clear
11:58 PM 58.3 °F - 51.6 °F 78% 30.09 in 10.0 mi SSE 11.5 mph - N/A   Overcast